• Join FlightAware (Why Join?)
  • Login
  • US Flag GB Flag 
08:18 EST


 

Airport Tracker/Info


-or-


 

Live Flight TrackerFlight Track Log ✈ FLG4216 ✈ 05-May-2013 ✈ KCVG - KDTW

Flight Track Log - Related Links

Times and Time Zones

All times are in EDT time to prevent confusion due to time zone crossing. See the FLG4216 flight status page for this flight to view local times or setup timezone preferences in your user account.

Time Position Orientation Groundspeed Altitude Reporting Facility
EDT Latitude Longitude Course Direction KTS MPH feet Rate Location/Type
17:58 39.0333 -84.6667 347° North 173 199 1,600  Level Cincinnati TRACON
17:59 39.0333 -84.6000 90° East 224 258 3,600 1,980 Climbing Cincinnati TRACON
18:01 39.0776 -84.4019 15° North  Level FlightAware Approximate
18:01 39.1611 -84.5447 19° North 286 329 8,200  Level Indianapolis Center
18:02 39.1617 -84.4352 347° North  Level FlightAware Approximate
18:03 39.2497 -84.4616 347° North  Level FlightAware Approximate
18:03 39.3597 -84.5108 North 337 388 12,300  Level Indianapolis Center
18:04 39.4656 -84.4944 North 367 422 14,200 1,740 Climbing Indianapolis Center
18:05 39.5725 -84.4744 North 379 436 15,900 1,440 Climbing Indianapolis Center
18:06 39.6822 -84.4558 North 389 448 17,200 1,320 Climbing Indianapolis Center
18:07 39.7953 -84.4364 North 399 459 18,700 840 Climbing Indianapolis Center
18:08 39.9097 -84.4147 North 407 468 19,000 120 Climbing Indianapolis Center
18:09 40.0231 -84.3972 North 406 467 19,000  Level Indianapolis Center
18:10 40.1417 -84.3994 359° North 418 481 19,000  Level Indianapolis Center
18:11 40.2811 -84.4039 359° North 423 487 19,000  Level Indianapolis Center
18:12 40.3997 -84.4061 359° North 421 484 19,000  Level Indianapolis Center
18:13 40.5178 -84.4083 359° North 421 484 19,000  Level Indianapolis Center
18:14 40.6347 -84.4114 359° North 415 478 19,000  Level Indianapolis Center
18:15 40.7497 -84.4153 359° North 409 471 19,000  Level Indianapolis Center
18:16 40.8644 -84.4178 359° North 408 470 19,000  Level Indianapolis Center
18:18 40.9989 -84.4242 358° North 401 461 19,000 -480 Level Cleveland Center
18:19 41.1114 -84.4253 360° North 401 461 18,000 -1,320 Descending Cleveland Center
18:20 41.2303 -84.4294 358° North 401 461 16,400 -1,440 Descending Cleveland Center
18:21 41.3364 -84.4331 359° North 396 456 15,200 -1,200 Descending Cleveland Center
18:22 41.4428 -84.4367 359° North 384 442 14,100 -1,140 Descending Cleveland Center
18:23 41.5450 -84.4344 North 374 430 13,000 -1,080 Descending Cleveland Center
18:24 41.6469 -84.4378 359° North 368 423 12,000 -540 Descending Cleveland Center
18:25 41.7264 -84.3672 34° Northeast 323 372 12,000  Level Cleveland Center
18:25 41.7383 -84.3289 67° East 336 387 12,000  Level Cleveland Center
18:26 41.7567 -84.2744 66° East 306 352 12,000  Level Cleveland Center
18:27 41.7897 -84.1536 70° East 306 352 12,000  Level Cleveland Center
18:28 41.8219 -84.0553 66° East 301 346 12,000 -180 Level Cleveland Center
18:29 41.8919 -84.0144 23° Northeast 259 298 11,700 -840 Descending Cleveland Center
18:30 41.9594 -83.9872 17° North 248 285 10,400 -1,380 Descending Cleveland Center
18:31 41.9764 -83.9072 74° East 212 244 9,000 -1,440 Descending Cleveland Center
18:32 41.9786 -83.8261 88° East 200 230 7,600 -1,020 Descending Cleveland Center
18:33 41.9600 -83.7469 108° East 207 238 7,000 -900 Descending Cleveland Center
18:34 41.9769 -83.6669 74° East 207 238 5,900 -1,020 Descending Cleveland Center
18:35 41.9997 -83.5925 68° East 212 244 5,000 -720 Descending Cleveland Center
18:36 42.0394 -83.5050 59° Northeast 192 221 4,300 -780 Descending Cleveland Center
18:37 42.0861 -83.4736 27° Northeast 178 205 3,300 -1,020 Descending Cleveland Center
18:38 42.1286 -83.4389 31° Northeast 169 194 2,300 -900 Descending Cleveland Center
18:39 42.1669 -83.4100 29° Northeast 144 166 1,500 -840 Descending Cleveland Center